Location: ????????
(55.0559°N, 39.1270°E)
Time: 00:09:52
(UTC+00:00)

Cosmos 1674 Rocket - Pass Details

Date: 15 November 2025
Orbit: 595 x 623 km, 82.5° (Epoch: 12 December)

Event Time Altitude Azimuth Distance (km) Brightness Sun altitude
Rises 04:08:48 0° 219° (SW) 2,900 6.8 -6.8°
Reaches altitude 10° 04:11:14 10° 229° (SW) 1,997 5.9 -6.5°
Maximum altitude 04:15:12 31° 293° (WNW) 1,091 4.3 -6.0°
Drops below altitude 10° 04:19:11 10° 356° (N) 2,003 5.9 -5.4°
Sets 04:21:38 0° 7° (N) 2,910 6.8 -5.1°
